Other Surface Observations
Issued by NWS Charleston, SC

Home | Current Version | Previous Version | Text Only | Print | Product List | Glossary On
Versions: 1 2 3 4 5 6 7 8 9 10 11 12 13 14 15 16 17 18 19 20 21 22 23 24 25 26 27 28 29 30 31 32 33 34 35 36 37 38 39 40 41 42 43 44 45 46 47 48 49 50
592
SXUS52 KCHS 221827
OSOCHS

MARINE OBSERVATIONS
NATIONAL WEATHER SERVICE CHARLESTON SC
200 PM EDT SAT JUL 22 2017

...DOWNTOWN CHARLESTON AND HARBOR...

CITY           SKY/WX    TMP DP  RH WIND       PRES   REMARKS
WATERFRONT PRK   N/A     88  77  69 S8        30.01F HX 100

...LAKE MOULTRIE...

CITY           SKY/WX    TMP DP  RH WIND       PRES   REMARKS
PINOPOLIS        N/A     90  75  62 SW6       29.94F HX 100

...LAKE AND SUPPLEMENTAL COASTAL OBSERVATIONS...

STATION/POSITION TIME  TEMP    WIND        PRES    WAVE   SWELL
                       AIR SEA DIR/SP/G            HT/PER HT/PER/DIR
                 (UTC) (F)     (DEG/KT/KT) (MB)    (FT/S) (FT/S/D)
FORT PULASKI     1800   87 86  170/  6/  9 1016.9
SAPELO ISLAND    1800   92     160/  4     1017.0
WINYAH BAY       1730   88     190/  9     1016.0F
LAKE MURRAY      NOT AVBL
ACE BASIN NERRS  1745   90        CALM     1017.0S


...C-MAN AND BUOY OBSERVATIONS...

STATION/POSITION TIME  TEMP    WIND        PRES    WAVE   SWELL
                       AIR SEA DIR/SP/G            HT/PER HT/PER/DIR
                 (UTC) (F)     (DEG/KT/KT) (MB)    (FT/S) (FT/S/D)
BUOY 41004       1810   83 84  220/ 10/ 12 1016.5
BUOY 41008       1750   81 84  170/  6/  8 1017.1F   2/ 8   2/ 90/ 8
FOLLY BEACH CMAN 1800   85     200/ 12/ 14 1017.3F
CAPERS NS BUOY   1808   82 84  220/ 12/ 17 1016.4F
FRIPP NS BUOY    1808   83 86  200/ 10/ 12 1016.4F
5E ST. MARYS GA  1800      85                N/A     2/ 9


STATION/POSITION TIME  TEMP    WIND        PRES    WAVE   SWELL
                       AIR SEA DIR/SP/G            HT/PER HT/PER/DIR
                 (UTC) (F)     (DEG/KT/KT) (MB)    (FT/S) (FT/S/D)
FRYING PAN BUOY  1810   83 84  210/ 12/ 14 1016.3
BUOY 41025       1750   83 83  230/ 19/ 23 1014.9F   4/ 5   2/140/10
CAPE LOOKOUT NC  1800   84     230/ 12/ 18 1015.2F
BUOY 41002       1750   84 84  210/ 12/ 14 1018.9F   4/ 9   3/100/ 9
BUOY 41010       1810   84 85  220/ 10/ 12 1018.6
ST AUGUSTINE FL  1800   82 82  130/ 13/ 14 1017.3F

$$




USA.gov is the U.S. government's official web portal to all federal, state and local government web resources and services.